#timestamp,LO_Frequency,Hit,StdDev 
1665360015.3,286047003.3,N
1665360035.1,286047003.6,N
1665360055.8,286047004.0,N
1665360075.7,286047000.3,N
1665360095.5,286047000.1,N
1665360115.4,286047002.0,N
1665360135.2,286047001.8,N
1665360155.0,286047000.2,N
1665360155.9,286047000.2,N
1665360175.8,286046998.8,N
1665360195.6,286046998.7,N
1665360215.4,286046998.2,N
1665360235.3,286047001.9,N
1665360255.1,286047001.1,N
1665360275.9,286046997.5,N
1665360295.7,286046998.2,N
1665360315.5,286047001.9,N
1665360335.4,286047000.2,N
1665360355.2,286046996.6,N
1665360375.0,286046997.8,N
1665360375.9,286046997.8,N
1665360395.8,286046995.5,N
1665360415.6,286046998.9,N
1665360435.5,286046997.2,N
1665360455.3,286046998.4,N
1665360475.1,286046999.7,N
1665360495.9,286046999.1,N
1665360515.7,286046999.5,N
1665360535.5,286046998.6,N
1665360555.4,286046998.2,N
1665360575.2,286046998.2,N
1665360595.1,286047002.4,N
1665360596.0,286047002.4,N
1665360615.8,286047002.5,N
1665360635.6,286047003.6,N
1665360655.5,286047002.4,N
1665360675.3,286047001.6,N
1665360695.1,286047003.6,N
1665360715.9,286047001.0,N
1665360735.7,286046999.4,N
1665360755.6,286046998.4,N
1665360775.4,286046997.7,N
1665360795.2,286046999.3,N
1665360815.1,286047000.9,N
1665360816.0,286047000.9,N
1665360835.8,286046999.8,N
1665360855.6,286046999.9,N
1665360875.5,286046997.1,N
1665360895.3,286046996.8,N
1665360915.2,286046997.3,N
1665360935.9,286046996.8,N
1665360955.7,286046997.0,N
1665360975.6,286046997.0,N
1665360995.4,286046999.8,N
1665361015.2,286046999.7,N
1665361035.1,286047000.3,N
1665361036.0,286047000.3,N
1665361055.8,286047002.4,N
1665361075.7,286047002.6,N
1665361095.5,286046999.9,N
1665361115.3,286046998.1,N
1665361135.2,286046998.9,N
1665361155.0,286046999.6,N
1665361155.9,286046999.6,N
1665361175.8,286046995.5,N
1665361195.6,286046995.7,N
1665361215.4,286046995.2,N
1665361235.3,286046997.9,N
1665361255.1,286047000.6,N
1665361275.9,286047006.0,Y
1665361295.7,286047004.2,P
1665361315.5,286047003.6,N
1665361335.4,286047001.7,N
1665361355.2,286047003.9,N
1665361375.0,286047003.4,N
1665361375.9,286047003.4,N
1665361395.8,286047005.8,Y
1665361415.6,286046998.1,P
1665361435.5,286046996.7,N
1665361455.3,286046996.5,N
1665361475.1,286046996.0,N
1665361495.9,286046993.6,N
1665361515.7,286046992.0,N
1665361535.5,286046992.1,N
1665361555.4,286046992.3,N
1665361575.2,286046996.1,N
1665361595.1,286047000.8,N
1665361596.0,286047000.8,N
1665361615.8,286047000.8,N
1665361635.6,286047004.4,N
1665361655.5,286047002.0,N
1665361675.3,286046999.7,N
1665361695.1,286047003.9,N
1665361715.9,286047004.0,N
1665361735.7,286047000.5,N
1665361755.6,286046998.7,N
1665361775.4,286046999.1,N
1665361795.2,286047000.9,N
1665361815.1,286046998.3,N
1665361816.0,286046998.3,N
1665361835.8,286046999.1,N
1665361855.6,286047001.1,N
1665361875.5,286046998.2,N
1665361895.3,286046998.5,N
1665361915.2,286046998.6,N
1665361935.9,286047002.5,N
1665361955.7,286047002.1,N
1665361975.6,286046999.7,N
1665361995.4,286047002.2,N
1665362015.2,286047003.3,N
1665362035.1,286047002.6,N
1665362036.0,286047002.6,N
1665362055.8,286047002.1,N
1665362075.7,286047002.8,N
1665362095.5,286047000.1,N
1665362115.3,286047002.8,N
1665362135.2,286047000.4,N
1665362155.0,286047011.9,Y
1665362155.9,286046998.8,P
1665362175.7,286046995.6,P
1665362195.6,286046998.0,N
1665362215.4,286046998.6,N
1665362235.3,286046998.1,N
1665362255.1,286046996.7,N
1665362256.0,286046996.7,N
1665362275.8,286046995.1,Y
1665362295.7,286047002.4,P
1665362315.5,286047000.6,N
1665362335.4,286047000.1,N
1665362355.2,286047000.0,N
1665362375.0,286047001.0,N
1665362375.9,286047001.0,N
1665362395.8,286046998.1,N
1665362415.6,286047000.6,N
1665362435.4,286047000.3,N
1665362455.3,286046999.7,N
1665362475.1,286047003.2,N
1665362495.9,286047002.0,N
1665362515.7,286047000.4,N
1665362535.5,286047002.8,N
1665362555.4,286047005.6,Y
1665362575.2,286047004.2,P
1665362595.0,286046999.1,N
1665362596.0,286046999.1,N
1665362615.8,286047000.8,N
1665362635.6,286046996.9,N
1665362655.5,286046995.4,N
1665362675.3,286046997.1,N
1665362695.1,286046999.0,N
1665362715.9,286046999.0,N
1665362735.7,286047002.8,N
1665362755.6,286047002.4,N
1665362775.4,286047003.5,N
1665362795.2,286046999.9,N
1665362815.1,286047004.1,N
1665362816.0,286047004.1,N
1665362835.8,286046999.7,N
1665362855.6,286047002.3,N
1665362875.5,286047000.5,N
1665362895.3,286046998.3,N
1665362915.2,286046997.0,N
1665362935.9,286046993.4,N
1665362955.7,286046990.5,Y
1665362975.6,286046992.0,P
1665362995.4,286046991.9,N
1665363015.2,286046993.0,N
1665363035.1,286046987.4,Y
1665363036.0,286046987.4,P
1665363055.8,286046994.1,N
1665363075.7,286046993.8,N
1665363095.5,286046998.2,N
1665363115.3,286046999.8,N
1665363135.2,286047001.7,N
1665363155.0,286047003.3,N
1665363155.9,286047003.3,N
1665363175.7,286047003.2,N
1665363195.6,286047006.0,N
1665363215.4,286047006.9,N
1665363235.3,286047004.7,N
1665363255.1,286047005.2,N
1665363256.0,286047005.2,N
1665363275.8,286047007.5,N
1665363295.7,286047005.5,N
1665363315.5,286047001.5,N
1665363335.3,286047007.5,N
1665363355.2,286047006.3,N
1665363375.0,286047005.3,N
1665363375.9,286047005.3,N
1665363395.8,286047000.3,N
1665363415.6,286047000.3,N
1665363435.4,286047004.0,N
1665363455.3,286047002.3,N
1665363475.1,286047005.4,N
1665363495.8,286047003.7,N
1665363515.7,286047003.1,N
1665363535.5,286047003.3,N
1665363555.4,286047001.5,N
1665363575.2,286047004.0,N
1665363595.0,286047004.3,N
1665363595.9,286047004.3,N
